Weather History for KHZY - July, 2013

Change the Weather History Date:

Monday, July 15, 2013

  Actual Average (KYNG) Record (KYNG)
Temperature  
Mean Temperature 80 °F 71 °F  
Max Temperature 88 °F 82 °F 102 °F (1936)
Min Temperature 71 °F 60 °F 46 °F (1960)
Degree Days  
Heating Degree Days 0 0  
Month to date heating degree days 8  
Since 1 June heating degree days 77  
Since 1 July heating degree days 8  
Cooling Degree Days 14 6  
Month to date cooling degree days 90  
Year to date cooling degree days 239  
Since 1 June cooling degree days 200  
Growing Degree Days 30 (Base 50)    
Moisture  
Dew Point 70 °F    
Average Humidity 75    
Maximum Humidity 91    
Minimum Humidity 57    
Precipitation  
Precipitation 0.00 in 0.14 in 1.27 in (1992)
Month to date precipitation 2.09  
Year to date precipitation 20.76  
Snow  
Snow 0.00 in 0.00 in - ()
Month to date snowfall 0.0  
Since 1 June snowfall 0.0  
Since 1 July snowfall 0.0  
Snow Depth -    
Sea Level Pressure  
Sea Level Pressure 30.29 in    
Wind  
Wind Speed 1 mph (WNW)    
Max Wind Speed 9 mph    
Max Gust Speed -    
Visibility 10 miles    
Events      
T = Trace of Precipitation, MM = Missing Value Source: NWS Daily Summary

Daily Weather History Graph

Daily Weather History Graph

Search for Another Location

Airport or City:

Trip Planner

Search our weather history database for the weather conditions in past years. The results will help you decide how hot, cold, wet, or windy it might be!

Date:

Astronomy

Jul. 15, 2013 Rise Set
Actual Time 6:01 AM EDT 8:55 PM EDT
Civil Twilight 5:28 AM EDT 9:28 PM EDT
Nautical Twilight 4:46 AM EDT 10:10 PM EDT
Astronomical Twilight 3:57 AM EDT 10:59 PM EDT
Moon 1:26 PM EDT (7/15) 12:00 AM EDT (7/15)
Length of Visible Light 16h 00m
Length of Day
14h 54m
Waxing Crescent, 45% of the Moon is Illuminated
Jul 15
Waxing Crescent
Jul 15
First Quarter
Jul 22
Full
Jul 29
Last Quarter
Aug 6
New

Hourly Weather History & Observations

Time (EDT) Temp. Heat Index Dew Point Humidity Pressure Visibility Wind Dir Wind Speed Gust Speed Precip Events Conditions
12:53 AM 71.1 °F - 68.0 °F 90% 30.27 in 8.0 mi Calm Calm - N/A   Clear
1:53 AM 71.1 °F - 66.9 °F 87% 30.28 in 10.0 mi Calm Calm - N/A   Clear
2:53 AM 71.1 °F - 66.9 °F 87% 30.28 in 10.0 mi Calm Calm - N/A   Clear
3:53 AM 72.0 °F - 66.9 °F 84% 30.28 in 10.0 mi Calm Calm - N/A   Clear
4:53 AM 71.1 °F - 66.9 °F 87% 30.29 in 10.0 mi Calm Calm - N/A   Mostly Cloudy
5:53 AM 73.0 °F - 68.0 °F 84% 30.30 in 10.0 mi Calm Calm - N/A   Overcast
6:53 AM 73.0 °F - 68.0 °F 84% 30.31 in 10.0 mi Calm Calm - N/A   Overcast
7:53 AM 75.0 °F - 69.1 °F 82% 30.32 in 10.0 mi SSW 3.5 mph - N/A   Overcast
8:53 AM 78.1 °F - 71.1 °F 79% 30.33 in 10.0 mi Calm Calm - N/A   Scattered Clouds
9:53 AM 82.0 °F 85.9 °F 70.0 °F 67% 30.32 in 10.0 mi WSW 5.8 mph - N/A   Scattered Clouds
10:53 AM 82.9 °F 87.5 °F 71.1 °F 67% 30.33 in 10.0 mi Calm Calm - N/A   Overcast
11:53 AM 86.0 °F 92.2 °F 72.0 °F 63% 30.32 in 10.0 mi West 3.5 mph - N/A   Mostly Cloudy
12:53 PM 86.0 °F 91.5 °F 71.1 °F 61% 30.31 in 10.0 mi Calm Calm - N/A   Mostly Cloudy
1:53 PM 87.1 °F 92.8 °F 71.1 °F 59% 30.30 in 10.0 mi Calm Calm - N/A   Partly Cloudy
2:53 PM 88.0 °F 93.8 °F 71.1 °F 57% 30.29 in 10.0 mi Calm Calm - N/A   Partly Cloudy
3:53 PM 86.0 °F 90.7 °F 70.0 °F 59% 30.29 in 10.0 mi North 9.2 mph - N/A   Scattered Clouds
4:53 PM 86.0 °F 91.5 °F 71.1 °F 61% 30.28 in 10.0 mi WNW 5.8 mph - N/A   Clear
5:53 PM 86.0 °F 91.5 °F 71.1 °F 61% 30.27 in 10.0 mi NNW 5.8 mph - N/A   Clear
6:53 PM 86.0 °F 90.7 °F 70.0 °F 59% 30.27 in 10.0 mi NNW 4.6 mph - N/A   Clear
7:53 PM 84.0 °F 89.0 °F 71.1 °F 65% 30.26 in 10.0 mi Calm Calm - N/A   Clear
8:53 PM 77.0 °F - 71.1 °F 82% 30.27 in 10.0 mi Calm Calm - N/A   Clear
9:53 PM 75.9 °F - 72.0 °F 87% 30.28 in 8.0 mi Calm Calm - N/A   Mostly Cloudy
10:53 PM 73.9 °F - 71.1 °F 91% 30.28 in 5.0 mi Calm Calm - N/A   Clear
11:53 PM 73.0 °F - 70.0 °F 90% 30.29 in 6.0 mi Calm Calm - N/A   Clear